320  
ASUS43 KLMK 261310  
RWRKY  
KENTUCKY REGIONAL WEATHER ROUNDUP  
NATIONAL WEATHER SERVICE LOUISVILLE KY  
900 AM EDT WED APR 26 2017  
 
NOTE "FAIR" INDICATES FEW OR NO CLOUDS BELOW 12,000 FEET  
WITH NO SIGNIFICANT WEATHER AND/OR S TO VISIBILITY
.  
 
KYZ001>023-026-027-061>063-070>075-261400-  
WESTERN AND SOUTH CENTRAL KENTUCKY  
 
CITY SKY/WX TMP DP RH WIND PRES REMARKS
 
PADUCAH MOSUNNY 68 56 65 S8 29.62F  
HENDERSON CLOUDY 66 58 75 S14 29.65R  
OWENSBORO PTSUNNY 65 58 78 S12 29.67S  
HOPKINSVILLE SUNNY 67 58 71 S9 29.69F  
BOWLING GREEN CLOUDY 67 60 78 S12 29.74S  
GLASGOW SUNNY 65 57 73 S7 29.76R  

 
 
KYZ024-025-028>034-038-045-046-053-261400-  
NORTH CENTRAL KENTUCKY  
 
CITY SKY/WX TMP DP RH WIND PRES REMARKS
 
LOUISVILLE/SDF PTSUNNY 68 57 68 S9 29.71R  
LOUISVILLE/LOU SUNNY 66 58 75 S10 29.71R  
FORT KNOX SUNNY 65 57 75 S12 29.70S  

 
 
KYZ035>037-039>044-047>052-055>060-089>105-261400-  
NORTHEAST KENTUCKY  
 
CITY SKY/WX TMP DP RH WIND PRES REMARKS
 
LEXINGTON SUNNY 65 56 72 S12 29.76S  
COVINGTON MOSUNNY 65 57 75 S10 29.71S  
FRANKFORT SUNNY 65 55 70 S10 29.73R  

 
 
KYZ054-064>069-076>088-106>120-261400-  
SOUTHEAST KENTUCKY  
 
CITY SKY/WX TMP DP RH WIND PRES REMARKS
 
JACKSON SUNNY 60 55 83 VRB3 29.82S  
LONDON SUNNY 59 54 83 S3 29.82S  
SOMERSET SUNNY 59 57 94 S6 29.81S  
MIDDLESBORO PTSUNNY 52 52 100 CALM 29.87R  
MONTICELLO SUNNY 65 58 78 VRB6 29.81S  

 
 
 
 
CLICK HERE TO GO TO PREVIOUS BULLETINS.

The Nexlab KY Page Main Text Page